KLM96L EHAM-EGPH

Flight info

Callsign KLM96L
Flight time 1h 1m
Altitude 36000
Route BERGI L602 EMLON M79 TENDO DCT AGPED
Aircraft A21N/M-SDE2E3FGHIJ1RWXY/LB1

Departure

Time 2026-04-18 06:56
Airport Amsterdam Airport Schiphol (EHAM)

Arrival

Time 2026-04-18 07:57
Airport Edinburgh Airport (EGPH)
Time Latitude Longitude Altitude Speed Heading
2026-04-18 06:37 52.30899 4.77176 0 ft 0 kts
2026-04-18 06:47 52.30898 4.77176 0 ft 1 kts
2026-04-18 06:47 52.30883 4.77174 0 ft 2 kts
2026-04-18 06:47 52.30868 4.77172 0 ft 2 kts 24°
2026-04-18 06:48 52.30856 4.77158 0 ft 2 kts 47°
2026-04-18 06:48 52.30848 4.77137 0 ft 2 kts 72°
2026-04-18 06:48 52.30845 4.77119 0 ft 0 kts 90°
2026-04-18 06:48 52.30846 4.77107 0 ft 0 kts 94°
2026-04-18 06:49 52.30846 4.77106 0 ft 0 kts 94°
2026-04-18 06:49 52.30846 4.77107 0 ft 0 kts 94°
2026-04-18 06:52 52.30845 4.77129 0 ft 5 kts 92°
2026-04-18 06:52 52.30843 4.77212 0 ft 7 kts 93°
2026-04-18 06:52 52.30840 4.77305 0 ft 8 kts 93°
2026-04-18 06:53 52.30837 4.77406 0 ft 9 kts 93°
2026-04-18 06:53 52.30793 4.77465 0 ft 9 kts 181°
2026-04-18 06:53 52.30723 4.77458 0 ft 10 kts 184°
2026-04-18 06:53 52.30651 4.77475 0 ft 10 kts 155°
2026-04-18 06:54 52.30582 4.77531 0 ft 11 kts 153°
2026-04-18 06:54 52.30511 4.77592 0 ft 11 kts 152°
2026-04-18 06:54 52.30447 4.77646 0 ft 7 kts 153°
2026-04-18 06:54 52.30416 4.77644 0 ft 2 kts 231°
2026-04-18 06:55 52.30412 4.77632 0 ft 0 kts 238°
2026-04-18 06:55 52.30391 4.77579 0 ft 23 kts 238°
2026-04-18 06:55 52.30140 4.76924 0 ft 110 kts 238°
2026-04-18 06:55 52.29601 4.75516 60 ft 173 kts 238°
2026-04-18 06:56 52.28961 4.73850 870 ft 175 kts 237°
2026-04-18 06:56 52.28304 4.72177 1737 ft 179 kts 237°
2026-04-18 06:56 52.27603 4.70482 2413 ft 190 kts 233°
2026-04-18 06:56 52.26682 4.68778 3021 ft 207 kts 226°
2026-04-18 06:57 52.25636 4.67091 3694 ft 219 kts 224°
2026-04-18 06:57 52.23806 4.62589 4831 ft 262 kts 250°
2026-04-18 06:57 52.23225 4.59741 5743 ft 269 kts 258°
2026-04-18 06:58 52.23224 4.56743 6694 ft 272 kts 285°
2026-04-18 06:58 52.24088 4.54021 7637 ft 275 kts 313°
2026-04-18 06:58 52.25555 4.52036 8569 ft 278 kts 325°
2026-04-18 06:58 52.27167 4.50209 9472 ft 283 kts 326°
2026-04-18 06:59 52.28780 4.48407 10347 ft 287 kts 326°
2026-04-18 06:59 52.30445 4.46539 11034 ft 298 kts 326°
2026-04-18 06:59 52.32219 4.44534 11500 ft 317 kts 326°
2026-04-18 06:59 52.34081 4.42419 11929 ft 336 kts 326°
2026-04-18 07:00 52.36029 4.40194 12316 ft 354 kts 326°
2026-04-18 07:00 52.38097 4.37825 12810 ft 368 kts 326°
2026-04-18 07:00 52.40117 4.35508 13554 ft 372 kts 326°
2026-04-18 07:00 52.42317 4.32982 14398 ft 375 kts 324°
2026-04-18 07:01 52.44470 4.30508 15218 ft 377 kts 324°
2026-04-18 07:01 52.46599 4.28055 15987 ft 380 kts 324°
2026-04-18 07:01 52.48787 4.25533 16683 ft 384 kts 324°
2026-04-18 07:01 52.50976 4.23006 17343 ft 388 kts 324°
2026-04-18 07:02 52.53180 4.20458 17991 ft 392 kts 324°
2026-04-18 07:02 52.55415 4.17871 18628 ft 396 kts 324°
2026-04-18 07:02 52.57666 4.15262 19245 ft 400 kts 324°
2026-04-18 07:02 52.59933 4.12632 19845 ft 404 kts 324°
2026-04-18 07:03 52.62228 4.09966 20432 ft 407 kts 324°
2026-04-18 07:03 52.64493 4.07116 20984 ft 411 kts 315°
2026-04-18 07:03 52.66258 4.03399 21541 ft 415 kts 303°
2026-04-18 07:03 52.67759 3.99360 22108 ft 417 kts 301°
2026-04-18 07:04 52.69259 3.95191 22623 ft 421 kts 301°
2026-04-18 07:04 52.70757 3.91092 23121 ft 425 kts 301°
2026-04-18 07:04 52.72324 3.86889 23624 ft 428 kts 302°
2026-04-18 07:04 52.73907 3.82707 24105 ft 431 kts 302°
2026-04-18 07:05 52.75510 3.78509 24568 ft 434 kts 302°
2026-04-18 07:05 52.77137 3.74264 24993 ft 438 kts 302°
2026-04-18 07:05 52.78757 3.70039 25379 ft 442 kts 302°
2026-04-18 07:05 52.80416 3.65712 25790 ft 445 kts 302°
2026-04-18 07:06 52.82065 3.61410 26229 ft 447 kts 302°
2026-04-18 07:06 52.83735 3.57046 26672 ft 449 kts 302°
2026-04-18 07:06 52.85417 3.52645 27090 ft 450 kts 302°
2026-04-18 07:06 52.87073 3.48306 27574 ft 450 kts 302°
2026-04-18 07:07 52.88741 3.43929 28100 ft 448 kts 302°
2026-04-18 07:07 52.90396 3.39579 28618 ft 447 kts 302°
2026-04-18 07:07 52.92056 3.35209 29119 ft 446 kts 302°
2026-04-18 07:07 52.93702 3.30869 29601 ft 445 kts 302°
2026-04-18 07:08 52.95348 3.26521 30071 ft 444 kts 302°
2026-04-18 07:08 52.96976 3.22215 30525 ft 443 kts 302°
2026-04-18 07:08 52.98617 3.17864 30975 ft 442 kts 302°
2026-04-18 07:08 53.00235 3.13570 31409 ft 441 kts 302°
2026-04-18 07:09 53.01866 3.09230 31837 ft 440 kts 302°
2026-04-18 07:09 53.03476 3.04943 32246 ft 439 kts 302°
2026-04-18 07:09 53.05080 3.00662 32640 ft 438 kts 302°
2026-04-18 07:09 53.06687 2.96364 33021 ft 437 kts 302°
2026-04-18 07:10 53.08305 2.92031 33387 ft 437 kts 302°
2026-04-18 07:10 53.09896 2.87764 33727 ft 436 kts 302°
2026-04-18 07:10 53.11482 2.83501 34067 ft 436 kts 302°
2026-04-18 07:10 53.13091 2.79169 34409 ft 435 kts 302°
2026-04-18 07:11 53.14677 2.74892 34699 ft 435 kts 302°
2026-04-18 07:11 53.16262 2.70612 34944 ft 436 kts 302°
2026-04-18 07:11 53.17865 2.66274 35177 ft 438 kts 302°
2026-04-18 07:11 53.19454 2.61965 35406 ft 439 kts 302°
2026-04-18 07:12 53.21043 2.57651 35631 ft 439 kts 302°
2026-04-18 07:12 53.22638 2.53311 35848 ft 440 kts 302°
2026-04-18 07:12 53.24239 2.48949 36057 ft 441 kts 302°
2026-04-18 07:12 53.25844 2.44567 36142 ft 443 kts 302°
2026-04-18 07:13 53.29043 2.35811 36149 ft 443 kts 302°
2026-04-18 07:13 53.32248 2.27007 36150 ft 443 kts 301°
2026-04-18 07:14 53.35436 2.18220 36150 ft 443 kts 301°
2026-04-18 07:14 53.38638 2.09363 36150 ft 443 kts 301°
2026-04-18 07:15 53.41816 2.00541 36150 ft 443 kts 301°
2026-04-18 07:15 53.44989 1.91702 36150 ft 443 kts 301°
2026-04-18 07:16 53.48152 1.82860 36150 ft 443 kts 301°
2026-04-18 07:16 53.51312 1.73993 36150 ft 443 kts 301°
2026-04-18 07:17 53.54451 1.65153 36150 ft 443 kts 301°
2026-04-18 07:17 53.57588 1.56290 36151 ft 443 kts 301°
2026-04-18 07:18 53.60731 1.47376 36162 ft 443 kts 301°
2026-04-18 07:18 53.63878 1.38422 36161 ft 443 kts 301°
2026-04-18 07:19 53.66985 1.29547 36156 ft 443 kts 300°
2026-04-18 07:19 53.70104 1.20606 36153 ft 443 kts 300°
2026-04-18 07:20 53.73219 1.11645 36152 ft 443 kts 300°
2026-04-18 07:20 53.76329 1.02666 36151 ft 443 kts 300°
2026-04-18 07:21 53.79444 0.93639 36150 ft 443 kts 300°
2026-04-18 07:21 53.82535 0.84648 36150 ft 443 kts 300°
2026-04-18 07:22 53.85618 0.75652 36150 ft 443 kts 300°
2026-04-18 07:22 53.88688 0.66660 36150 ft 443 kts 300°
2026-04-18 07:23 53.91766 0.57610 36150 ft 443 kts 300°
2026-04-18 07:23 53.94832 0.48569 36150 ft 443 kts 300°
2026-04-18 07:24 53.97875 0.39550 36150 ft 443 kts 300°
2026-04-18 07:24 54.00935 0.30455 36140 ft 443 kts 300°
2026-04-18 07:25 54.04297 0.21693 36131 ft 443 kts 306°
2026-04-18 07:25 54.08088 0.13441 36126 ft 443 kts 308°
2026-04-18 07:26 54.11915 0.05307 36124 ft 443 kts 308°
2026-04-18 07:26 54.15771 -0.02930 36124 ft 443 kts 308°
2026-04-18 07:27 54.19582 -0.11113 36124 ft 443 kts 308°
2026-04-18 07:27 54.23410 -0.19364 36124 ft 443 kts 308°
2026-04-18 07:28 54.27225 -0.27616 36124 ft 443 kts 308°
2026-04-18 07:28 54.31021 -0.35856 36124 ft 443 kts 308°
2026-04-18 07:29 54.34821 -0.44133 36123 ft 443 kts 308°
2026-04-18 07:29 54.38620 -0.52432 36123 ft 443 kts 308°
2026-04-18 07:30 54.42421 -0.60767 36118 ft 443 kts 308°
2026-04-18 07:30 54.46208 -0.69099 36106 ft 443 kts 308°
2026-04-18 07:31 54.49988 -0.77442 36099 ft 443 kts 308°
2026-04-18 07:31 54.53772 -0.85823 36097 ft 443 kts 308°
2026-04-18 07:32 54.57531 -0.94175 36096 ft 443 kts 308°
2026-04-18 07:32 54.61284 -1.02544 36096 ft 443 kts 308°
2026-04-18 07:33 54.65039 -1.10946 36096 ft 443 kts 308°
2026-04-18 07:33 54.68798 -1.19384 36096 ft 443 kts 308°
2026-04-18 07:34 54.72550 -1.27835 36096 ft 443 kts 308°
2026-04-18 07:34 54.74418 -1.32056 35925 ft 444 kts 308°
2026-04-18 07:34 54.76277 -1.36262 35454 ft 442 kts 308°
2026-04-18 07:35 54.78132 -1.40464 34864 ft 442 kts 308°
2026-04-18 07:35 54.80001 -1.44706 34223 ft 442 kts 308°
2026-04-18 07:35 54.81853 -1.48918 33576 ft 443 kts 308°
2026-04-18 07:35 54.83702 -1.53129 32917 ft 443 kts 308°
2026-04-18 07:36 54.85578 -1.57411 32242 ft 444 kts 308°
2026-04-18 07:36 54.87436 -1.61655 31562 ft 444 kts 308°
2026-04-18 07:36 54.89300 -1.65924 30864 ft 445 kts 307°
2026-04-18 07:36 54.91169 -1.70211 30117 ft 447 kts 307°
2026-04-18 07:37 54.93038 -1.74503 29336 ft 449 kts 307°
2026-04-18 07:37 54.94902 -1.78792 28543 ft 451 kts 307°
2026-04-18 07:37 54.96800 -1.83167 27717 ft 453 kts 307°
2026-04-18 07:37 54.98677 -1.87504 26877 ft 455 kts 307°
2026-04-18 07:38 55.00575 -1.91895 26120 ft 454 kts 307°
2026-04-18 07:38 55.02466 -1.96277 25562 ft 448 kts 307°
2026-04-18 07:38 55.04315 -2.00569 25000 ft 443 kts 307°
2026-04-18 07:38 55.06144 -2.04825 24433 ft 439 kts 307°
2026-04-18 07:39 55.07952 -2.09036 23867 ft 435 kts 307°
2026-04-18 07:39 55.09759 -2.13253 23293 ft 431 kts 307°
2026-04-18 07:39 55.11538 -2.17410 22728 ft 427 kts 307°
2026-04-18 07:39 55.13302 -2.21541 22161 ft 424 kts 307°
2026-04-18 07:40 55.15055 -2.25654 21596 ft 420 kts 307°
2026-04-18 07:40 55.16782 -2.29710 21036 ft 417 kts 307°
2026-04-18 07:40 55.18492 -2.33733 20477 ft 413 kts 307°
2026-04-18 07:40 55.20213 -2.37790 19912 ft 410 kts 307°
2026-04-18 07:41 55.21898 -2.41768 19355 ft 407 kts 307°
2026-04-18 07:41 55.23554 -2.45683 18806 ft 403 kts 307°
2026-04-18 07:41 55.25222 -2.49634 18250 ft 400 kts 307°
2026-04-18 07:41 55.26868 -2.53539 17695 ft 397 kts 307°
2026-04-18 07:42 55.28488 -2.57388 17148 ft 394 kts 307°
2026-04-18 07:42 55.30101 -2.61227 16601 ft 391 kts 307°
2026-04-18 07:42 55.31713 -2.65067 16050 ft 388 kts 306°
2026-04-18 07:42 55.33302 -2.68860 15506 ft 385 kts 306°
2026-04-18 07:43 55.34865 -2.72596 14956 ft 382 kts 306°
2026-04-18 07:43 55.36438 -2.76362 14401 ft 379 kts 306°
2026-04-18 07:43 55.37980 -2.80058 14023 ft 371 kts 306°
2026-04-18 07:43 55.39465 -2.83624 13817 ft 358 kts 306°
2026-04-18 07:44 55.40903 -2.87081 13621 ft 346 kts 306°
2026-04-18 07:44 55.42297 -2.90440 13431 ft 334 kts 306°
2026-04-18 07:44 55.43649 -2.93702 13253 ft 323 kts 306°
2026-04-18 07:44 55.44951 -2.96813 13084 ft 312 kts 309°
2026-04-18 07:45 55.46573 -2.99170 12877 ft 301 kts 336°
2026-04-18 07:45 55.48610 -2.99921 12498 ft 298 kts 358°
2026-04-18 07:45 55.50658 -2.99971 12123 ft 296 kts 360°
2026-04-18 07:45 55.52718 -2.99995 11750 ft 294 kts 359°
2026-04-18 07:46 55.54739 -3.00037 11388 ft 292 kts 359°
2026-04-18 07:46 55.56768 -3.00096 11027 ft 290 kts 359°
2026-04-18 07:46 55.58758 -3.00165 10673 ft 288 kts 359°
2026-04-18 07:46 55.60750 -3.00242 10318 ft 286 kts 359°
2026-04-18 07:47 55.62716 -3.00322 9968 ft 283 kts 359°
2026-04-18 07:47 55.64684 -3.00404 9617 ft 281 kts 359°
2026-04-18 07:47 55.66629 -3.00487 9268 ft 280 kts 359°
2026-04-18 07:47 55.68538 -3.00569 8926 ft 278 kts 359°
2026-04-18 07:48 55.70479 -3.00653 8580 ft 276 kts 359°
2026-04-18 07:48 55.72382 -3.00735 8240 ft 274 kts 359°
2026-04-18 07:48 55.74276 -3.00818 7900 ft 272 kts 359°
2026-04-18 07:48 55.76133 -3.00898 7568 ft 270 kts 359°
2026-04-18 07:49 55.78011 -3.00980 7231 ft 268 kts 359°
2026-04-18 07:49 55.79871 -3.01061 6897 ft 267 kts 359°
2026-04-18 07:49 55.81723 -3.01142 6565 ft 265 kts 359°
2026-04-18 07:49 55.83544 -3.01221 6237 ft 263 kts 359°
2026-04-18 07:50 55.85365 -3.01301 5909 ft 262 kts 359°
2026-04-18 07:50 55.87172 -3.01380 5584 ft 260 kts 359°
2026-04-18 07:50 55.88979 -3.01459 5257 ft 259 kts 359°
2026-04-18 07:50 55.90772 -3.01538 4933 ft 257 kts 359°
2026-04-18 07:51 55.92540 -3.01615 4614 ft 256 kts 359°
2026-04-18 07:51 55.94302 -3.01715 4294 ft 255 kts 356°
2026-04-18 07:51 55.96074 -3.02028 3970 ft 253 kts 353°
2026-04-18 07:51 55.97815 -3.02430 3664 ft 251 kts 352°
2026-04-18 07:52 55.99493 -3.02829 3617 ft 237 kts 352°
2026-04-18 07:52 56.01062 -3.03229 3568 ft 224 kts 346°
2026-04-18 07:52 56.02369 -3.04543 3458 ft 213 kts 308°
2026-04-18 07:52 56.02967 -3.06851 3415 ft 208 kts 285°
2026-04-18 07:53 56.03331 -3.09381 3294 ft 207 kts 284°
2026-04-18 07:53 56.03389 -3.11913 3109 ft 207 kts 255°
2026-04-18 07:53 56.02829 -3.14263 2846 ft 206 kts 241°
2026-04-18 07:53 56.02127 -3.16372 2655 ft 190 kts 238°
2026-04-18 07:54 56.01438 -3.18328 2370 ft 180 kts 238°
2026-04-18 07:54 56.00800 -3.20162 2104 ft 170 kts 238°
2026-04-18 07:54 56.00200 -3.21917 1857 ft 160 kts 239°
2026-04-18 07:54 55.99646 -3.23550 1634 ft 149 kts 239°
2026-04-18 07:55 55.99113 -3.25125 1444 ft 147 kts 239°
2026-04-18 07:55 55.98591 -3.26663 1269 ft 146 kts 239°
2026-04-18 07:55 55.98063 -3.28217 1106 ft 143 kts 239°
2026-04-18 07:55 55.97555 -3.29711 917 ft 138 kts 239°
2026-04-18 07:56 55.97058 -3.31174 721 ft 137 kts 239°
2026-04-18 07:56 55.96567 -3.32620 534 ft 137 kts 239°
2026-04-18 07:56 55.96069 -3.34087 349 ft 137 kts 239°
2026-04-18 07:56 55.95584 -3.35520 174 ft 136 kts 239°
2026-04-18 07:57 55.95116 -3.36899 101 ft 111 kts 239°
2026-04-18 07:57 55.94807 -3.37815 104 ft 60 kts 239°
2026-04-18 07:57 55.94659 -3.38249 107 ft 35 kts 239°
2026-04-18 07:57 55.94541 -3.38598 110 ft 30 kts 239°
2026-04-18 07:58 55.94364 -3.38937 116 ft 15 kts 160°
2026-04-18 07:58 55.94286 -3.38839 118 ft 12 kts 112°
2026-04-18 07:58 55.94329 -3.38656 117 ft 24 kts 59°
2026-04-18 07:59 55.94421 -3.38386 112 ft 24 kts 59°
2026-04-18 07:59 55.94501 -3.38147 110 ft 21 kts 59°
2026-04-18 07:59 55.94578 -3.37923 107 ft 21 kts 59°
2026-04-18 07:59 55.94657 -3.37689 104 ft 22 kts 59°
2026-04-18 08:00 55.94738 -3.37450 102 ft 22 kts 59°
2026-04-18 08:00 55.94814 -3.37225 103 ft 18 kts 59°
2026-04-18 08:00 55.94870 -3.37059 103 ft 13 kts 59°
2026-04-18 08:00 55.94914 -3.36929 102 ft 10 kts 59°
2026-04-18 08:01 55.94913 -3.36825 102 ft 5 kts 140°
2026-04-18 08:01 55.94879 -3.36787 103 ft 5 kts 158°
2026-04-18 08:01 55.94845 -3.36773 104 ft 4 kts 147°
2026-04-18 08:01 55.94828 -3.36723 104 ft 4 kts 118°
2026-04-18 08:02 55.94814 -3.36675 104 ft 4 kts 118°
2026-04-18 08:02 55.94805 -3.36645 105 ft 1 kts 118°
2026-04-18 08:02 55.94803 -3.36635 105 ft 0 kts 117°
2026-04-18 08:02 55.94802 -3.36634 105 ft 0 kts 117°